TimeEDT,TemperatureF,Dew PointF,Humidity,Sea Level PressureIn,VisibilityMPH,Wind Direction,Wind SpeedMPH,Gust SpeedMPH,PrecipitationIn,Events,Conditions,WindDirDegrees,DateUTC
12:53 AM,48.0,45.0,89,30.04,10.0,Calm,Calm,-,0.04,,Overcast,0,2012-10-08 04:53:00
1:53 AM,48.0,45.0,89,30.06,10.0,WNW,4.6,-,0.01,,Overcast,290,2012-10-08 05:53:00
2:53 AM,46.0,44.1,93,30.06,10.0,WNW,3.5,-,N/A,,Scattered Clouds,300,2012-10-08 06:53:00
3:53 AM,44.1,43.0,96,30.07,8.0,Calm,Calm,-,N/A,,Clear,0,2012-10-08 07:53:00
4:02 AM,44.6,42.8,93,30.08,1.8,Calm,Calm,-,N/A,,Clear,0,2012-10-08 08:02:00
4:21 AM,42.8,41.0,93,30.09,3.0,WNW,4.6,-,N/A,,Clear,290,2012-10-08 08:21:00
4:53 AM,43.0,41.0,93,30.09,10.0,WNW,4.6,-,N/A,,Clear,290,2012-10-08 08:53:00
5:22 AM,42.8,39.2,87,30.11,1.8,Calm,Calm,-,N/A,,Clear,0,2012-10-08 09:22:00
5:31 AM,42.8,41.0,93,30.11,4.0,Calm,Calm,-,N/A,,Clear,0,2012-10-08 09:31:00
5:42 AM,41.0,39.2,93,30.12,1.5,Calm,Calm,-,N/A,,Clear,0,2012-10-08 09:42:00
5:53 AM,41.0,39.0,93,30.12,1.2,WNW,3.5,-,N/A,,Clear,290,2012-10-08 09:53:00
5:57 AM,41.0,39.2,93,30.13,3.0,NW,3.5,-,N/A,,Clear,310,2012-10-08 09:57:00
6:45 AM,39.2,37.4,93,30.14,0.8,NW,3.5,-,N/A,,Clear,320,2012-10-08 10:45:00
6:53 AM,39.9,37.9,93,30.13,0.2,NNW,4.6,-,N/A,Fog,Fog,340,2012-10-08 10:53:00
7:01 AM,41.0,39.2,93,30.14,0.5,NNW,4.6,-,N/A,Fog,Fog,340,2012-10-08 11:01:00
7:18 AM,39.2,39.2,100,30.14,5.0,North,3.5,-,N/A,Fog,Shallow Fog,350,2012-10-08 11:18:00
7:53 AM,44.1,42.1,93,30.16,10.0,Calm,Calm,-,N/A,,Clear,0,2012-10-08 11:53:00
8:53 AM,48.9,44.1,83,30.19,10.0,NW,3.5,-,N/A,,Clear,310,2012-10-08 12:53:00
9:53 AM,52.0,44.1,74,30.21,10.0,WNW,5.8,-,N/A,,Scattered Clouds,290,2012-10-08 13:53:00
10:30 AM,51.8,42.8,71,30.21,10.0,NW,6.9,-,N/A,,Mostly Cloudy,310,2012-10-08 14:30:00
10:53 AM,53.1,42.1,66,30.22,10.0,NW,4.6,-,N/A,,Mostly Cloudy,310,2012-10-08 14:53:00
11:02 AM,53.6,42.8,67,30.23,10.0,NW,4.6,-,N/A,,Scattered Clouds,310,2012-10-08 15:02:00
11:10 AM,53.6,42.8,67,30.23,10.0,NW,5.8,-,N/A,,Mostly Cloudy,310,2012-10-08 15:10:00
11:26 AM,55.4,42.8,63,30.23,10.0,Calm,Calm,-,N/A,,Scattered Clouds,0,2012-10-08 15:26:00
11:33 AM,53.6,42.8,67,30.23,10.0,WNW,8.1,-,N/A,,Mostly Cloudy,300,2012-10-08 15:33:00
11:43 AM,53.6,41.0,62,30.23,10.0,Calm,Calm,-,N/A,,Scattered Clouds,0,2012-10-08 15:43:00
11:53 AM,55.0,42.1,62,30.22,10.0,WNW,6.9,-,N/A,,Mostly Cloudy,290,2012-10-08 15:53:00
12:01 PM,55.4,41.0,58,30.23,10.0,Variable,4.6,-,N/A,,Mostly Cloudy,0,2012-10-08 16:01:00
12:53 PM,55.0,39.9,57,30.22,10.0,NNW,5.8,-,N/A,,Mostly Cloudy,340,2012-10-08 16:53:00
1:53 PM,55.9,39.0,53,30.22,10.0,Calm,Calm,-,N/A,,Overcast,0,2012-10-08 17:53:00
2:53 PM,55.0,41.0,59,30.25,10.0,NNW,3.5,-,N/A,,Overcast,340,2012-10-08 18:53:00
3:53 PM,55.9,39.9,55,30.25,10.0,Calm,Calm,-,N/A,,Overcast,0,2012-10-08 19:53:00
4:53 PM,54.0,42.1,64,30.25,10.0,East,3.5,-,N/A,,Mostly Cloudy,90,2012-10-08 20:53:00
5:53 PM,53.1,44.1,71,30.26,10.0,East,3.5,-,N/A,,Clear,90,2012-10-08 21:53:00
6:53 PM,51.1,44.1,77,30.28,10.0,East,3.5,-,N/A,,Clear,90,2012-10-08 22:53:00
7:53 PM,51.1,44.1,77,30.29,10.0,Calm,Calm,-,N/A,,Clear,0,2012-10-08 23:53:00
8:53 PM,48.9,44.1,83,30.29,10.0,Calm,Calm,-,N/A,,Clear,0,2012-10-09 00:53:00
9:53 PM,48.0,44.1,86,30.30,10.0,Calm,Calm,-,N/A,,Clear,0,2012-10-09 01:53:00
10:53 PM,48.0,45.0,89,30.30,10.0,Calm,Calm,-,N/A,,Overcast,0,2012-10-09 02:53:00
11:53 PM,48.0,45.0,89,30.30,10.0,Calm,Calm,-,N/A,,Overcast,0,2012-10-09 03:53:00